Location: Unspecified
(0.0000°N, 0.0000°E)
Time: 09:50:16
(UTC+00:00)

STARLINK-1316 - Pass Details

Date: 14 February 2026
Orbit: 474 x 476 km, 53.2° (Epoch: 7 March)

Event Time Altitude Azimuth Distance (km) Brightness Sun altitude
Rises 05:18:27 0° 187° (S) 2,516 7.1 -13.6°
Reaches altitude 10° 05:21:15 10° 164° (SSE) 1,635 6.4 -12.9°
Maximum altitude 05:23:36 16° 125° (SE) 1,301 6.6 -12.3°
Drops below altitude 10° 05:25:56 10° 85° (E) 1,630 7.3 -11.7°
Sets 05:28:42 0° 63° (ENE) 2,504 7.8 -11.1°
